Regional Weather Roundup
Issued by NWS

Home | Current Version | Previous Version | Text Only | Print | Product List | Glossary Off
Versions: 1 2 3 4 5 6 7 8 9 10 11 12 13 14 15 16 17 18 19 20 21 22 23 24 25 26 27 28 29 30 31 32 33 34 35 36 37 38 39 40 41 42 43 44 45 46 47 48 49 50

000
ASUS43 KMKX 242021
RWRWI

WISCONSIN REGIONAL WEATHER ROUNDUP
NATIONAL WEATHER SERVICE MILWAUKEE/SULLIVAN WI
200 PM CST FRI FEB 24 2017

NOTE: "FAIR" INDICATES FEW OR NO CLOUDS BELOW 12,000 FEET WITH NO
SIGNIFICANT WEATHER AND/OR OBSTRUCTIONS TO VISIBILITY.

WIZ001-002-006>008-014>016-023>028-242100-
NORTHWEST WISCONSIN

CITY           SKY/WX    TMP DP  RH WIND       PRES   REMARKS
SUPERIOR ARPT  CLOUDY    24  12  60 NE10      29.91F WCI  13
ASHLAND        CLOUDY    19  15  84 N18G25    29.88F FOG     WCI   4
HAYWARD        LGT SNOW  21  14  74 NE17G25   29.80F WCI   7
SIREN          LGT SNOW  23  15  71 N16G25    29.83F WCI  10
CUMBERLAND     CLOUDY    23  14  68 N16G23    29.77R WCI  10
RICE LAKE      LGT SNOW  23  18  80 N14G20    29.78F WCI  11
CHETEK         SNOW      23  19  85 N9G16     29.76F VSB 1/2 WCI  13
LADYSMITH      LGT SNOW  25  20  80 N15G22    29.74F WCI  13
EAU CLAIRE     LGT SNOW  25  20  81 N16G23    29.72S WCI  12
MENOMONIE      LGT SNOW  25  19  79 N21       29.74F WCI  11
NEW RICHMOND   CLOUDY    26  16  65 N17G24    29.79R WCI  13
OSCEOLA        CLOUDY    26  16  66 N15G22    29.84S WCI  14
$$

WIZ003>005-009-010-017-018-242100-
NORTH CENTRAL WISCONSIN

CITY           SKY/WX    TMP DP  RH WIND       PRES   REMARKS
MANITOWISH WTR LGT SNOW  19  17  90 N10       29.72F WCI   7
ARBOR VITAE    LGT SNOW  22  18  84 N13G22      N/A  WCI  10
WOODRUFF       LGT SNOW  22  18  84 N13G22      N/A  WCI  10
RHINELANDER    MIX PCPN  23  16  74 N12G24    29.66F WCI  12
EAGLE RIVER    LGT SNOW  20  14  77 N13G22    29.68F WCI   8
LAND O LAKES   LGT SNOW  19  15  82 N14G24    29.72F WCI   6
PHILLIPS       LGT SNOW  22  17  83 N17       29.70F WCI   7
TOMAHAWK       CLOUDY    23  17  78 N13G22    29.67F WCI  11
MEDFORD        CLOUDY    23  18  80 N21G26    29.64F HAZE    WCI   8
MERRILL        NOT AVBL
$$

WIZ029-030-035-036-043>047-242100-
CENTRAL WISCONSIN

CITY           SKY/WX    TMP DP  RH WIND       PRES   REMARKS
WAUSAU         LGT SNOW  24  19  81 N8G17     29.62F WCI  15
MOSINEE        LGT SNOW  25  21  86 N14       29.64F WCI  13
MARSHFIELD     CLOUDY    26  19  74 NE15G25   29.60F HAZE    WCI  14
STEVENS POINT  CLOUDY    23  22  93 N16       29.62F FOG     WCI  10
WAUPACA        CLOUDY    29  25  84 N10G18    29.61F FOG     WCI  20
WAUTOMA        FRZ RAIN  27  25  93 NE16      29.60F FOG     WCI  14
WISC RAPIDS    FRZ RAIN  26  24  92 NE16      29.63F FOG     WCI  14
CAMP DOUGLAS   FRZ DRZL  27  25  93 N9        29.62F FOG     WCI  17
$$

WIZ011>013-019>022-031-037>040-048>050-242100-
NORTHEAST WISCONSIN

CITY           SKY/WX    TMP DP  RH WIND       PRES   REMARKS
ANTIGO         HAZE      22  18  83 N18G24    29.63S VSB 3/4 WCI   8
SHAWANO        CLOUDY    28  24  86 N21       29.62F FOG     WCI  14
OCONTO         CLOUDY    27  25  91 N13G22    29.62F WCI  16
STURGEON BAY   MIX PCPN  28  26  92 N16G25    29.60F FOG     WCI  16
GREEN BAY      LGT SNOW  29  27  92 N24       29.58F FOG     WCI  15
MANITOWOC      MIX PCPN  32  30  92 N12G23    29.53F FOG     WCI  23
APPLETON       CLOUDY    27  25  93 NE21G30   29.57F FOG     WCI  13
CLINTONVILLE   CLOUDY    28  23  80 N14G23    29.62F FOG     WCI  17
OSHKOSH        CLOUDY    28  25  88 N21G30    29.56F FOG     WCI  15
$$

WIZ032>034-041-042-053>061-242100-
SOUTHWEST WISCONSIN

CITY           SKY/WX    TMP DP  RH WIND       PRES   REMARKS
LA CROSSE      MIX PCPN  31  23  72 N13G20    29.66S WCI  21
SPARTA         CLOUDY    28  24  84 NE13G26   29.65S WCI  17
VIROQUA        CLOUDY    28  26  94 N15       29.60R WCI  16
BOSCOBEL       CLOUDY    31  26  82 NE10G24   29.60R WCI  22
PRAIRIE DU CHI CLOUDY    31  29  92 N16G23    29.61R FOG     WCI  20
PLATTEVILLE    CLOUDY    31  31 100 N10       29.55R WCI  23
$$

WIZ056-057-062-063-064-067-068-242100-
SOUTH CENTRAL WISCONSIN

CITY           SKY/WX    TMP DP  RH WIND       PRES   REMARKS
REEDSBURG      CLOUDY    28  27  99 N12G17    29.58R FOG     WCI  17
BARABOO/DELLS  CLOUDY    28  26  94 NE8       29.57F FOG     WCI  20
LONE ROCK      CLOUDY    30  25  81 NE13      29.60R WCI  20
MINERAL POINT  CLOUDY    32  32 100 N6        29.53R FOG     WCI  26
MADISON        FRZ DRZL  29  27  92 NE20      29.53F FOG     WCI  16
MIDDLETON      CLOUDY    31  31  99 NE10      29.54F WCI  23
WATERTOWN      CLOUDY    32  32 100 N12G20    29.52R FOG     WCI  23
MONROE         CLOUDY    32  32 100 N23       29.49S WCI  19
JANESVILLE     CLOUDY    36  36 100 NE13G18   29.49S FOG     WCI  27
$$

WIZ051-052-058>065-066-070>072-242100-
SOUTHEAST WISCONSIN

CITY           SKY/WX    TMP DP  RH WIND       PRES   REMARKS
MILWAUKEE      LGT RAIN  36  33  89 N15G25    29.48S FOG     WCI  27
WAUKESHA       CLOUDY    32  32 100 N12G21    29.49S FOG     WCI  23
MILWAUKEE/TIMM CLOUDY    34  30  86 NE13G23   29.50F FOG     WCI  25
RACINE         CLOUDY    36  34  92 N18G25    29.48S FOG     WCI  26
KENOSHA        CLOUDY    36  34  92 N13       29.46F FOG     WCI  27
FOND DU LAC    LGT SNOW  29  25  85 N23       29.55F FOG     WCI  15
SHEBOYGAN      MIX PCPN  32  30  92 N15G24    29.51F FOG     WCI  22
WEST BEND      LGT SNOW  32  32 100 N6        29.51R WCI  26
JUNEAU         CLOUDY    28  27  94 N10G16    29.55R FOG     WCI  19
$$

LSZ147-162-242100-
LAKE SUPERIOR

STATION/POSITION TIME  TEMP    WIND        PRES    WAVE
                       AIR SEA DIR/SP/G            HT/PER
                 (UTC) (F)     (DEG/KT/KT) (MB)    (FT/S)
DEVILS ISLAND    2000   18      20/ 15/ 17 1014.3F
PORT WING        1940   20      40/ 16/ 20 1012.9F
SAXON HARBOR     1954   23      20/ 22/ 25 1011.2F
$$

LMZ867-665-643>646-242100-
LAKE MICHIGAN

STATION/POSITION TIME  TEMP    WIND        PRES    WAVE
                       AIR SEA DIR/SP/G            HT/PER
                 (UTC) (F)     (DEG/KT/KT) (MB)    (FT/S)
CHAMBERS ISLAND  1840   28     360/ 21/ 32 1003.7F
NORTHPORT PIER   1940   28      20/ 10/ 16 1004.1F
SISTER BAY       1935   28      30/ 13/ 23   N/A
KEWAUNEE LAKESHO 2000   31      20/ 15/ 25 1000.9
SHEBOYGAN LAKESH 2000   33      20/ 27/ 31  999.6F
PORT WASHINGTON  1940   34      30/ 12/ 19 1000.3S
MILWAUKEE LAKESH 2000   35      10/ 16/ 21   N/A
KENOSHA   LAKESH 2000   36     360/ 18/ 23  998.0
$$

TC  - TEMPERATURE IN CELSIUS
VSB - VISIBILITY IN STATUTE MILES
WCI - WIND CHILL INDEX
HX  - HEAT INDEX





USA.gov is the U.S. government's official web portal to all federal, state and local government web resources and services.